Station Historical Data
Daily Summary for October 31, 2017 Units:  English    Metric   Both
« Previous Day
Next Day »
Daily Weekly Monthly Yearly Custom
  High: Low: Average:
Temperature: 66.2 °F 41.7 °F 52.8 °F
Dew Point: 50.8 °F 39.3 °F 45.4 °F
Humidity: 93% 49% 78%
Wind Speed: 4.6mph 0.0mph 0.3mph
Wind Gust: 4.6mph - -
Wind- - SW
Pressure: 30.23 in 30.12 in -
Precipitation: 0.00 in    
Historical Graphs
 
 
Tabular Data for October 31, 2017
Time Temperature Dew Point Pressure Wind Wind Speed Wind Gust Humidity Rainfall Rate (Hourly) solar Conditions
00:01 48.6 °F 43.0 °F 30.12 in Calm     81% 0.00 in WeatherDisplay:10.37 W/m2 CLR
00:06 48.5 °F 42.9 °F 30.12 in Calm     81% 0.00 in WeatherDisplay:10.37 W/m2 CLR
00:12 48.5 °F 42.9 °F 30.12 in Calm     81% 0.00 in WeatherDisplay:10.37 W/m2 CLR
00:17 48.5 °F 42.9 °F 30.12 in Calm     81% 0.00 in WeatherDisplay:10.37 W/m2 CLR
00:22 48.4 °F 42.8 °F 30.12 in Calm     81% 0.00 in WeatherDisplay:10.37 W/m2 CLR
00:27 48.3 °F 42.7 °F 30.12 in Calm     81% 0.00 in WeatherDisplay:10.37 W/m2 CLR
00:32 48.1 °F 42.5 °F 30.12 in Calm     81% 0.00 in WeatherDisplay:10.37 W/m2 CLR
00:37 48.0 °F 42.8 °F 30.12 in Calm     82% 0.00 in WeatherDisplay:10.37 W/m2 CLR
00:42 47.8 °F 42.6 °F 30.12 in Calm     82% 0.00 in WeatherDisplay:10.37 W/m2 CLR
00:52 47.4 °F 42.5 °F 30.13 in Calm     83% 0.00 in WeatherDisplay:10.37 W/m2 CLR
01:03 47.2 °F 42.3 °F 30.13 in Calm     83% 0.00 in WeatherDisplay:10.37 W/m2 CLR
01:08 47.3 °F 42.4 °F 30.13 in Calm     83% 0.00 in WeatherDisplay:10.37 W/m2 CLR
01:13 47.3 °F 42.4 °F 30.13 in Calm     83% 0.00 in WeatherDisplay:10.37 W/m2 CLR
01:18 47.3 °F 42.4 °F 30.13 in Calm     83% 0.00 in WeatherDisplay:10.37 W/m2 CLR
01:23 47.3 °F 42.4 °F 30.13 in Calm     83% 0.00 in WeatherDisplay:10.37 W/m2 CLR
01:28 47.2 °F 42.6 °F 30.13 in Calm     84% 0.00 in WeatherDisplay:10.37 W/m2 CLR
01:33 47.0 °F 42.4 °F 30.13 in Calm     84% 0.00 in WeatherDisplay:10.37 W/m2 CLR
01:39 46.8 °F 42.2 °F 30.13 in Calm     84% 0.00 in WeatherDisplay:10.37 W/m2 CLR
01:44 46.6 °F 42.3 °F 30.13 in Calm     85% 0.00 in WeatherDisplay:10.37 W/m2 CLR
01:49 46.4 °F 42.1 °F 30.13 in Calm     85% 0.00 in WeatherDisplay:10.37 W/m2 CLR
01:54 46.2 °F 41.9 °F 30.13 in Calm     85% 0.00 in WeatherDisplay:10.37 W/m2 CLR
01:59 46.0 °F 42.0 °F 30.13 in Calm     86% 0.00 in WeatherDisplay:10.37 W/m2 CLR
02:04 45.8 °F 41.9 °F 30.13 in Calm     86% 0.00 in WeatherDisplay:10.37 W/m2 CLR
02:09 45.6 °F 42.0 °F 30.13 in Calm     87% 0.00 in WeatherDisplay:10.37 W/m2 CLR
02:14 45.4 °F 41.8 °F 30.13 in Calm     87% 0.00 in WeatherDisplay:10.37 W/m2 CLR
02:19 45.3 °F 41.7 °F 30.13 in Calm     87% 0.00 in WeatherDisplay:10.37 W/m2 CLR
02:25 45.1 °F 41.8 °F 30.13 in Calm     88% 0.00 in WeatherDisplay:10.37 W/m2 CLR
02:30 45.0 °F 41.7 °F 30.13 in Calm     88% 0.00 in WeatherDisplay:10.37 W/m2 CLR
02:35 44.9 °F 41.6 °F 30.13 in Calm     88% 0.00 in WeatherDisplay:10.37 W/m2 CLR
02:40 44.8 °F 41.5 °F 30.13 in Calm     88% 0.00 in WeatherDisplay:10.37 W/m2 CLR
02:45 44.7 °F 41.4 °F 30.13 in Calm     88% 0.00 in WeatherDisplay:10.37 W/m2 CLR
02:50 44.6 °F 41.6 °F 30.13 in Calm     89% 0.00 in WeatherDisplay:10.37 W/m2 CLR
02:55 44.5 °F 41.5 °F 30.13 in Calm     89% 0.00 in WeatherDisplay:10.37 W/m2 CLR
03:00 44.5 °F 41.5 °F 30.13 in Calm     89% 0.00 in WeatherDisplay:10.37 W/m2 CLR
03:05 44.4 °F 41.4 °F 30.13 in Calm     89% 0.00 in WeatherDisplay:10.37 W/m2 CLR
03:10 44.3 °F 41.3 °F 30.13 in Calm     89% 0.00 in WeatherDisplay:10.37 W/m2 CLR
03:15 44.3 °F 41.3 °F 30.13 in Calm     89% 0.00 in WeatherDisplay:10.37 W/m2 CLR
03:20 44.3 °F 41.3 °F 30.13 in Calm     89% 0.00 in WeatherDisplay:10.37 W/m2 CLR
03:25 44.4 °F 41.4 °F 30.13 in Calm     89% 0.00 in WeatherDisplay:10.37 W/m2 CLR
03:30 44.5 °F 41.4 °F 30.13 in Calm     89% 0.00 in WeatherDisplay:10.37 W/m2 CLR
03:35 44.5 °F 41.5 °F 30.14 in Calm     89% 0.00 in WeatherDisplay:10.37 W/m2 CLR
03:40 44.6 °F 41.6 °F 30.13 in Calm     89% 0.00 in WeatherDisplay:10.37 W/m2 CLR
03:45 44.6 °F 41.6 °F 30.14 in Calm     89% 0.00 in WeatherDisplay:10.37 W/m2 CLR
03:50 44.7 °F 41.7 °F 30.14 in Calm     89% 0.00 in WeatherDisplay:10.37 W/m2 CLR
03:55 44.7 °F 41.7 °F 30.14 in Calm     89% 0.00 in WeatherDisplay:10.37 W/m2 CLR
04:00 44.7 °F 41.7 °F 30.14 in Calm     89% 0.00 in WeatherDisplay:10.37 W/m2 CLR
04:05 44.7 °F 41.4 °F 30.14 in Calm     88% 0.00 in WeatherDisplay:10.37 W/m2 CLR
04:10 44.7 °F 41.4 °F 30.14 in Calm     88% 0.00 in WeatherDisplay:10.37 W/m2 CLR
04:15 44.7 °F 41.4 °F 30.14 in Calm     88% 0.00 in WeatherDisplay:10.37 W/m2 CLR
04:20 44.7 °F 41.4 °F 30.14 in Calm     88% 0.00 in WeatherDisplay:10.37 W/m2 CLR
04:25 44.7 °F 41.4 °F 30.14 in Calm     88% 0.00 in WeatherDisplay:10.37 W/m2 CLR
04:30 44.8 °F 41.5 °F 30.14 in Calm     88% 0.00 in WeatherDisplay:10.37 W/m2 CLR
04:35 44.9 °F 41.9 °F 30.14 in Calm     89% 0.00 in WeatherDisplay:10.37 W/m2 CLR
04:40 45.0 °F 42.0 °F 30.14 in Calm     89% 0.00 in WeatherDisplay:10.37 W/m2 CLR
04:45 45.1 °F 41.8 °F 30.14 in Calm     88% 0.00 in WeatherDisplay:10.37 W/m2 CLR
04:50 45.1 °F 41.8 °F 30.14 in Calm     88% 0.00 in WeatherDisplay:10.37 W/m2 CLR
04:55 45.1 °F 41.8 °F 30.15 in Calm     88% 0.00 in WeatherDisplay:10.37 W/m2 CLR
05:00 45.1 °F 41.5 °F 30.15 in Calm     87% 0.00 in WeatherDisplay:10.37 W/m2 CLR
05:05 45.0 °F 41.4 °F 30.15 in Calm     87% 0.00 in WeatherDisplay:10.37 W/m2 CLR
05:10 44.9 °F 41.3 °F 30.15 in Calm     87% 0.00 in WeatherDisplay:10.37 W/m2 CLR
05:15 44.9 °F 41.2 °F 30.15 in Calm     87% 0.00 in WeatherDisplay:10.37 W/m2 CLR
05:20 44.8 °F 41.4 °F 30.15 in Calm     88% 0.00 in WeatherDisplay:10.37 W/m2 CLR
05:25 44.7 °F 41.4 °F 30.15 in Calm     88% 0.00 in WeatherDisplay:10.37 W/m2 CLR
05:30 44.5 °F 41.2 °F 30.15 in Calm     88% 0.00 in WeatherDisplay:10.37 W/m2 CLR
05:35 44.4 °F 41.1 °F 30.15 in Calm     88% 0.00 in WeatherDisplay:10.37 W/m2 CLR
05:40 44.3 °F 41.0 °F 30.15 in Calm     88% 0.00 in WeatherDisplay:10.37 W/m2 CLR
05:45 44.1 °F 41.1 °F 30.15 in Calm     89% 0.00 in WeatherDisplay:10.37 W/m2 CLR
05:50 43.9 °F 40.9 °F 30.15 in Calm     89% 0.00 in WeatherDisplay:10.37 W/m2 CLR
05:55 43.7 °F 40.7 °F 30.16 in Calm     89% 0.00 in WeatherDisplay:10.37 W/m2 CLR
06:00 43.5 °F 40.5 °F 30.16 in Calm     89% 0.00 in WeatherDisplay:10.37 W/m2 CLR
06:05 43.3 °F 40.3 °F 30.16 in Calm     89% 0.00 in WeatherDisplay:10.37 W/m2 CLR
06:10 43.2 °F 40.2 °F 30.16 in Calm     89% 0.00 in WeatherDisplay:10.37 W/m2 CLR
06:15 43.1 °F 40.1 °F 30.16 in Calm     89% 0.00 in WeatherDisplay:10.37 W/m2 CLR
06:20 43.0 °F 40.3 °F 30.16 in Calm     90% 0.00 in WeatherDisplay:10.37 W/m2 CLR
06:25 42.9 °F 40.2 °F 30.16 in Calm     90% 0.00 in WeatherDisplay:10.37 W/m2 CLR
06:30 42.9 °F 40.2 °F 30.17 in Calm     90% 0.00 in WeatherDisplay:10.37 W/m2 CLR
06:35 42.9 °F 40.2 °F 30.17 in Calm     90% 0.00 in WeatherDisplay:10.37 W/m2 CLR
06:40 42.9 °F 40.2 °F 30.17 in Calm     90% 0.00 in WeatherDisplay:10.37 W/m2 CLR
06:45 42.9 °F 40.2 °F 30.17 in Calm     90% 0.00 in WeatherDisplay:10.37 W/m2 CLR
06:50 42.8 °F 40.1 °F 30.17 in Calm     90% 0.00 in WeatherDisplay:10.37 W/m2 CLR
06:55 42.6 °F 39.9 °F 30.17 in Calm     90% 0.00 in WeatherDisplay:10.37 W/m2 CLR
07:00 42.4 °F 39.7 °F 30.17 in Calm     90% 0.00 in WeatherDisplay:10.37 W/m2 CLR
07:05 42.3 °F 39.5 °F 30.18 in Calm     90% 0.00 in WeatherDisplay:10.37 W/m2 CLR
07:10 42.1 °F 39.4 °F 30.18 in Calm     90% 0.00 in WeatherDisplay:10.37 W/m2 CLR
07:15 42.0 °F 39.3 °F 30.18 in Calm     90% 0.00 in WeatherDisplay:10.37 W/m2 CLR
07:20 41.9 °F 39.5 °F 30.18 in Calm     91% 0.00 in WeatherDisplay:10.37 W/m2 CLR
07:25 41.8 °F 39.4 °F 30.18 in Calm     91% 0.00 in WeatherDisplay:10.37 W/m2 CLR
07:30 41.7 °F 39.3 °F 30.18 in Calm     91% 0.00 in WeatherDisplay:10.37 W/m2 CLR
07:35 41.7 °F 39.3 °F 30.18 in Calm     91% 0.00 in WeatherDisplay:10.37 W/m2 CLR
07:40 41.7 °F 39.3 °F 30.18 in Calm     91% 0.00 in WeatherDisplay:10.37 W/m2 CLR
07:45 41.7 °F 39.3 °F 30.19 in Calm     91% 0.00 in WeatherDisplay:10.37 W/m2 CLR
07:50 41.7 °F 39.3 °F 30.19 in Calm     91% 0.00 in WeatherDisplay:10.37 W/m2 CLR
07:55 41.7 °F 39.3 °F 30.19 in Calm     91% 0.00 in WeatherDisplay:10.37 W/m2 CLR
08:00 41.7 °F 39.3 °F 30.19 in Calm     91% 0.00 in WeatherDisplay:10.37 W/m2 CLR
08:05 41.7 °F 39.3 °F 30.19 in Calm     91% 0.00 in WeatherDisplay:10.37 W/m2 CLR
08:10 41.7 °F 39.3 °F 30.19 in Calm     91% 0.00 in WeatherDisplay:10.37 W/m2 CLR
08:15 41.7 °F 39.5 °F 30.19 in Calm     92% 0.00 in WeatherDisplay:10.37 W/m2 CLR
08:20 41.8 °F 39.6 °F 30.19 in Calm     92% 0.00 in WeatherDisplay:10.37 W/m2 CLR
08:25 41.8 °F 39.7 °F 30.20 in Calm     92% 0.00 in WeatherDisplay:10.37 W/m2 CLR
08:30 41.9 °F 39.7 °F 30.20 in Calm     92% 0.00 in WeatherDisplay:10.37 W/m2 CLR
08:35 42.0 °F 39.8 °F 30.20 in Calm     92% 0.00 in WeatherDisplay:10.37 W/m2 CLR
08:40 42.1 °F 39.9 °F 30.20 in Calm     92% 0.00 in WeatherDisplay:10.37 W/m2 CLR
08:45 42.2 °F 40.1 °F 30.20 in Calm     92% 0.00 in WeatherDisplay:10.37 W/m2 CLR
08:50 42.4 °F 40.2 °F 30.21 in Calm     92% 0.00 in WeatherDisplay:10.37 W/m2 CLR
08:55 42.7 °F 40.5 °F 30.21 in Calm     92% 0.00 in WeatherDisplay:10.37 W/m2 CLR
09:00 43.1 °F 40.9 °F 30.21 in Calm     92% 0.00 in WeatherDisplay:10.37 W/m2 CLR
09:05 43.4 °F 41.6 °F 30.21 in Calm     93% 0.00 in WeatherDisplay:10.37 W/m2 CLR
09:10 43.9 °F 42.0 °F 30.21 in Calm     93% 0.00 in WeatherDisplay:10.37 W/m2 CLR
09:15 44.6 °F 42.7 °F 30.22 in Calm     93% 0.00 in WeatherDisplay:10.37 W/m2 CLR
09:20 45.4 °F 43.4 °F 30.22 in Calm     93% 0.00 in WeatherDisplay:10.37 W/m2 CLR
09:25 46.1 °F 44.2 °F 30.22 in Calm     93% 0.00 in WeatherDisplay:10.37 W/m2 CLR
09:30 46.7 °F 44.8 °F 30.22 in Calm   1.0 mph 93% 0.00 in WeatherDisplay:10.37 W/m2 CLR
09:35 47.5 °F 45.3 °F 30.22 in Calm     92% 0.00 in WeatherDisplay:10.37 W/m2 CLR
09:40 48.4 °F 45.3 °F 30.22 in Calm     89% 0.00 in WeatherDisplay:10.37 W/m2 CLR
09:45 49.1 °F 45.1 °F 30.23 in Calm   1.0 mph 86% 0.00 in WeatherDisplay:10.37 W/m2 CLR
09:50 49.7 °F 44.7 °F 30.23 in East 1.0 mph 2.0 mph 83% 0.00 in WeatherDisplay:10.37 W/m2 CLR
09:55 50.1 °F 44.9 °F 30.22 in Calm   1.0 mph 82% 0.00 in WeatherDisplay:10.37 W/m2 CLR
10:00 50.6 °F 45.3 °F 30.22 in South 1.0 mph 2.0 mph 82% 0.00 in WeatherDisplay:10.37 W/m2 CLR
10:05 51.1 °F 45.5 °F 30.23 in Calm   1.0 mph 81% 0.00 in WeatherDisplay:10.37 W/m2 FEW
10:10 51.6 °F 45.6 °F 30.23 in West 1.0 mph 1.0 mph 80% 0.00 in WeatherDisplay:10.37 W/m2 FEW
10:15 51.9 °F 45.6 °F 30.23 in Calm   1.0 mph 79% 0.00 in WeatherDisplay:10.37 W/m2 FEW
10:20 52.2 °F 45.9 °F 30.23 in Calm   1.0 mph 79% 0.00 in WeatherDisplay:10.37 W/m2 FEW
10:25 52.6 °F 45.6 °F 30.23 in West 1.0 mph 3.0 mph 77% 0.00 in WeatherDisplay:10.37 W/m2 FEW
10:30 53.0 °F 46.0 °F 30.23 in SW 2.0 mph 2.0 mph 77% 0.00 in WeatherDisplay:10.37 W/m2 FEW
10:35 53.3 °F 45.9 °F 30.23 in Calm   2.0 mph 76% 0.00 in WeatherDisplay:10.37 W/m2 FEW
10:40 53.7 °F 46.3 °F 30.23 in Calm   2.0 mph 76% 0.00 in WeatherDisplay:10.37 W/m2 FEW
10:45 54.4 °F 46.6 °F 30.23 in Calm   1.0 mph 75% 0.00 in WeatherDisplay:10.37 W/m2 FEW
10:50 55.2 °F 47.0 °F 30.23 in Calm   1.0 mph 74% 0.00 in WeatherDisplay:10.37 W/m2 FEW
10:55 55.8 °F 47.7 °F 30.23 in Calm   1.0 mph 74% 0.00 in WeatherDisplay:10.37 W/m2 FEW
11:00 56.6 °F 47.3 °F 30.23 in Calm   1.0 mph 71% 0.00 in WeatherDisplay:10.37 W/m2 FEW
11:05 57.7 °F 47.9 °F 30.23 in Calm   1.0 mph 70% 0.00 in WeatherDisplay:10.37 W/m2 FEW
11:10 58.3 °F 47.4 °F 30.23 in Calm   1.0 mph 67% 0.00 in WeatherDisplay:10.37 W/m2 FEW
11:15 59.2 °F 48.2 °F 30.23 in Calm     67% 0.00 in WeatherDisplay:10.37 W/m2 FEW
11:20 59.8 °F 48.4 °F 30.23 in Calm     66% 0.00 in WeatherDisplay:10.37 W/m2 FEW
11:25 60.1 °F 48.2 °F 30.23 in Calm   1.0 mph 65% 0.00 in WeatherDisplay:10.37 W/m2 FEW
11:30 60.2 °F 48.4 °F 30.23 in Calm   2.0 mph 65% 0.00 in WeatherDisplay:10.37 W/m2 FEW
11:35 60.5 °F 47.8 °F 30.23 in East 1.2 mph 1.2 mph 63% 0.00 in WeatherDisplay:10.37 W/m2 FEW
11:40 60.5 °F 48.3 °F 30.23 in Calm     64% 0.00 in WeatherDisplay:10.37 W/m2 FEW
11:45 60.4 °F 48.6 °F 30.23 in Calm     65% 0.00 in WeatherDisplay:10.37 W/m2 FEW
11:50 60.5 °F 47.8 °F 30.23 in Calm     63% 0.00 in WeatherDisplay:10.37 W/m2 FEW
11:55 60.7 °F 48.0 °F 30.23 in ENE 1.2 mph 1.2 mph 63% 0.00 in WeatherDisplay:10.37 W/m2 FEW
12:00 60.7 °F 48.4 °F 30.23 in WSW 1.2 mph 1.2 mph 64% 0.00 in WeatherDisplay:10.37 W/m2 FEW
12:05 60.8 °F 48.5 °F 30.23 in Calm   0.1 mph 64% 0.00 in WeatherDisplay:10.37 W/m2 FEW
12:11 60.9 °F 47.8 °F 30.23 in Calm     62% 0.00 in WeatherDisplay:10.37 W/m2 FEW
12:16 60.9 °F 47.8 °F 30.22 in West 1.0 mph   62% 0.00 in WeatherDisplay:10.37 W/m2 FEW
12:21 61.2 °F 48.5 °F 30.23 in North 1.2 mph 1.2 mph 63% 0.00 in WeatherDisplay:10.37 W/m2 FEW
12:26 61.4 °F 48.3 °F 30.23 in NNW 1.2 mph 1.2 mph 62% 0.00 in WeatherDisplay:10.37 W/m2 FEW
12:31 61.6 °F 48.0 °F 30.22 in North 1.2 mph   61% 0.00 in WeatherDisplay:10.37 W/m2 FEW
12:36 61.8 °F 47.8 °F 30.22 in NW 1.2 mph   60% 0.00 in WeatherDisplay:10.37 W/m2 FEW
12:41 62.1 °F 48.0 °F 30.22 in NW 1.2 mph 1.2 mph 60% 0.00 in WeatherDisplay:10.37 W/m2 FEW
12:46 62.3 °F 48.2 °F 30.21 in SW 3.1 mph 3.1 mph 60% 0.00 in WeatherDisplay:10.37 W/m2 FEW
12:51 62.4 °F 47.4 °F 30.21 in SW 1.2 mph 1.2 mph 58% 0.00 in WeatherDisplay:10.37 W/m2 FEW
12:57 62.3 °F 47.3 °F 30.21 in SSW 2.3 mph 2.3 mph 58% 0.00 in WeatherDisplay:10.37 W/m2 FEW
13:02 62.3 °F 47.8 °F 30.21 in Calm     59% 0.00 in WeatherDisplay:10.37 W/m2 FEW
13:07 62.4 °F 47.4 °F 30.21 in North 1.2 mph 1.2 mph 58% 0.00 in WeatherDisplay:10.37 W/m2 FEW
13:12 62.6 °F 48.1 °F 30.20 in NW 1.2 mph 1.2 mph 59% 0.00 in WeatherDisplay:10.37 W/m2 FEW
13:17 62.7 °F 48.2 °F 30.20 in SSW 2.3 mph 2.3 mph 59% 0.00 in WeatherDisplay:10.37 W/m2 FEW
13:22 62.8 °F 47.8 °F 30.20 in Calm     58% 0.00 in WeatherDisplay:10.37 W/m2 FEW
13:27 63.0 °F 48.0 °F 30.20 in SSW 2.3 mph 2.3 mph 58% 0.00 in WeatherDisplay:10.37 W/m2 FEW
13:32 63.0 °F 48.0 °F 30.19 in NNW 1.2 mph 1.2 mph 58% 0.00 in WeatherDisplay:10.37 W/m2 FEW
13:37 63.3 °F 48.3 °F 30.19 in WNW 1.2 mph 1.2 mph 58% 0.00 in WeatherDisplay:10.37 W/m2 FEW
13:42 63.5 °F 48.0 °F 30.19 in SW 3.5 mph 3.5 mph 57% 0.00 in WeatherDisplay:10.37 W/m2 FEW
13:47 63.8 °F 47.8 °F 30.19 in South 2.3 mph 2.3 mph 56% 0.00 in WeatherDisplay:10.37 W/m2 FEW
13:52 63.9 °F 47.9 °F 30.19 in Calm     56% 0.00 in WeatherDisplay:10.37 W/m2 FEW
13:57 64.2 °F 48.2 °F 30.18 in SW 1.2 mph 1.2 mph 56% 0.00 in WeatherDisplay:10.37 W/m2 FEW
14:03 65.1 °F 47.5 °F 30.18 in Calm   0.3 mph 53% 0.00 in WeatherDisplay:10.37 W/m2 FEW
14:08 65.4 °F 47.3 °F 30.18 in Calm     52% 0.00 in WeatherDisplay:10.37 W/m2 FEW
14:13 65.6 °F 47.0 °F 30.17 in West 3.5 mph 3.5 mph 51% 0.00 in WeatherDisplay:10.37 W/m2 FEW
14:18 65.6 °F 47.5 °F 30.17 in SSE 1.2 mph 1.2 mph 52% 0.00 in WeatherDisplay:10.37 W/m2 FEW
14:23 65.7 °F 47.1 °F 30.17 in NNE 1.0 mph   51% 0.00 in WeatherDisplay:10.37 W/m2 FEW
14:28 65.8 °F 47.7 °F 30.17 in West 2.3 mph   52% 0.00 in WeatherDisplay:10.37 W/m2 FEW
14:33 66.0 °F 48.4 °F 30.17 in SSW 2.0 mph 2.0 mph 53% 0.00 in WeatherDisplay:10.37 W/m2 FEW
14:38 66.1 °F 47.4 °F 30.16 in WNW 1.2 mph 1.2 mph 51% 0.00 in WeatherDisplay:10.37 W/m2 FEW
14:43 66.1 °F 47.4 °F 30.16 in NNW 2.3 mph 2.3 mph 51% 0.00 in WeatherDisplay:10.37 W/m2 FEW
14:48 66.1 °F 48.0 °F 30.16 in East 4.6 mph 4.6 mph 52% 0.00 in WeatherDisplay:10.37 W/m2 FEW
14:54 66.0 °F 48.4 °F 30.16 in Calm     53% 0.00 in WeatherDisplay:10.37 W/m2 FEW
14:59 66.0 °F 48.4 °F 30.16 in Calm     53% 0.00 in WeatherDisplay:10.37 W/m2 FEW
15:04 66.1 °F 49.5 °F 30.16 in Calm     55% 0.00 in WeatherDisplay:10.37 W/m2 FEW
15:09 66.2 °F 48.6 °F 30.15 in SW 2.3 mph 2.3 mph 53% 0.00 in WeatherDisplay:10.37 W/m2 FEW
15:14 66.0 °F 47.9 °F 30.15 in ESE 1.2 mph 1.2 mph 52% 0.00 in WeatherDisplay:10.37 W/m2 FEW
15:19 65.9 °F 46.7 °F 30.15 in SSW 2.3 mph 2.3 mph 50% 0.00 in WeatherDisplay:10.37 W/m2 FEW
15:24 65.9 °F 46.2 °F 30.15 in SW 1.2 mph 1.2 mph 49% 0.00 in WeatherDisplay:10.37 W/m2 FEW
15:29 66.0 °F 47.3 °F 30.15 in Calm     51% 0.00 in WeatherDisplay:10.37 W/m2 FEW
15:34 66.1 °F 48.5 °F 30.15 in WSW 1.2 mph   53% 0.00 in WeatherDisplay:10.37 W/m2 FEW
15:39 66.1 °F 48.0 °F 30.15 in WSW 1.2 mph 1.2 mph 52% 0.00 in WeatherDisplay:10.37 W/m2 FEW
15:40 66.1 °F 48.0 °F 30.15 in Calm   1.0 mph 52% 0.00 in WeatherDisplay:10.37 W/m2 FEW
15:45 66.0 °F 47.9 °F 30.15 in Calm   1.0 mph 52% 0.00 in WeatherDisplay:10.37 W/m2 FEW
15:50 65.8 °F 47.2 °F 30.15 in Calm   1.0 mph 51% 0.00 in WeatherDisplay:10.37 W/m2 FEW
15:55 65.7 °F 47.6 °F 30.15 in Calm   2.0 mph 52% 0.00 in WeatherDisplay:10.37 W/m2 FEW
16:00 65.5 °F 47.4 °F 30.14 in Calm   2.0 mph 52% 0.00 in WeatherDisplay:10.37 W/m2 FEW
16:05 65.5 °F 48.4 °F 30.14 in Calm   1.0 mph 54% 0.00 in WeatherDisplay:10.37 W/m2 FEW
16:10 65.4 °F 47.8 °F 30.14 in Calm   3.0 mph 53% 0.00 in WeatherDisplay:10.37 W/m2 FEW
16:11 65.4 °F 46.8 °F 30.14 in SW 1.2 mph 1.2 mph 51% 0.00 in WeatherDisplay:10.37 W/m2 FEW
16:16 65.3 °F 47.2 °F 30.14 in ESE 1.2 mph 1.2 mph 52% 0.00 in WeatherDisplay:10.37 W/m2 FEW
16:21 65.2 °F 46.6 °F 30.14 in Calm     51% 0.00 in WeatherDisplay:10.37 W/m2 FEW
16:26 65.1 °F 47.0 °F 30.14 in Calm     52% 0.00 in WeatherDisplay:10.37 W/m2 FEW
16:31 65.1 °F 48.0 °F 30.14 in Calm     54% 0.00 in WeatherDisplay:10.37 W/m2 FEW
16:36 65.2 °F 49.1 °F 30.14 in Calm     56% 0.00 in WeatherDisplay:10.37 W/m2 FEW
16:41 65.1 °F 49.0 °F 30.14 in North 1.2 mph   56% 0.00 in WeatherDisplay:10.37 W/m2 FEW
16:46 65.2 °F 49.1 °F 30.14 in Calm     56% 0.00 in WeatherDisplay:10.37 W/m2 FEW
16:52 65.0 °F 49.4 °F 30.14 in North 1.0 mph 1.0 mph 57% 0.00 in WeatherDisplay:10.37 W/m2 FEW
16:57 64.7 °F 47.7 °F 30.14 in Calm     54% 0.00 in WeatherDisplay:10.37 W/m2 FEW
17:02 64.1 °F 49.9 °F 30.14 in Calm     60% 0.00 in WeatherDisplay:10.37 W/m2 FEW
17:07 63.7 °F 50.0 °F 30.14 in East 1.2 mph 1.2 mph 61% 0.00 in WeatherDisplay:10.37 W/m2 FEW
17:12 63.4 °F 50.1 °F 30.14 in Calm     62% 0.00 in WeatherDisplay:10.37 W/m2 FEW
17:17 63.1 °F 49.9 °F 30.14 in Calm   0.1 mph 62% 0.00 in WeatherDisplay:10.37 W/m2 FEW
17:22 62.9 °F 49.7 °F 30.14 in Calm     62% 0.00 in WeatherDisplay:10.37 W/m2 FEW
17:27 62.6 °F 49.8 °F 30.14 in Calm     63% 0.00 in WeatherDisplay:10.37 W/m2 FEW
17:32 62.3 °F 50.0 °F 30.14 in Calm     64% 0.00 in WeatherDisplay:10.37 W/m2 FEW
17:37 62.0 °F 49.7 °F 30.13 in Calm     64% 0.00 in WeatherDisplay:10.37 W/m2 FEW
17:43 61.8 °F 49.5 °F 30.14 in Calm     64% 0.00 in WeatherDisplay:10.37 W/m2 FEW
17:48 61.5 °F 49.6 °F 30.14 in Calm     65% 0.00 in WeatherDisplay:10.37 W/m2 FEW
17:53 61.3 °F 49.8 °F 30.14 in Calm     66% 0.00 in WeatherDisplay:10.37 W/m2 FEW
17:58 61.1 °F 50.1 °F 30.14 in East 1.2 mph 1.2 mph 67% 0.00 in WeatherDisplay:10.37 W/m2 FEW
18:03 60.9 °F 50.3 °F 30.14 in East 1.2 mph   68% 0.00 in WeatherDisplay:10.37 W/m2 FEW
18:08 60.7 °F 50.5 °F 30.14 in Calm     69% 0.00 in WeatherDisplay:10.37 W/m2 FEW
18:13 60.5 °F 50.7 °F 30.14 in Calm     70% 0.00 in WeatherDisplay:10.37 W/m2 FEW
18:18 60.3 °F 50.5 °F 30.14 in Calm     70% 0.00 in WeatherDisplay:10.37 W/m2 FEW
18:23 60.1 °F 50.7 °F 30.14 in Calm     71% 0.00 in WeatherDisplay:10.37 W/m2 FEW
18:28 60.0 °F 50.6 °F 30.14 in Calm     71% 0.00 in WeatherDisplay:10.37 W/m2 FEW
18:33 59.8 °F 50.8 °F 30.14 in Calm     72% 0.00 in WeatherDisplay:10.37 W/m2 FEW
18:38 59.5 °F 50.5 °F 30.14 in Calm     72% 0.00 in WeatherDisplay:10.37 W/m2 FEW
18:44 59.1 °F 50.5 °F 30.14 in Calm     73% 0.00 in WeatherDisplay:10.37 W/m2 FEW
18:49 58.8 °F 50.2 °F 30.14 in Calm     73% 0.00 in WeatherDisplay:10.37 W/m2 FEW
18:54 58.7 °F 49.7 °F 30.14 in Calm     72% 0.00 in WeatherDisplay:10.37 W/m2 FEW
18:59 58.5 °F 49.9 °F 30.14 in Calm     73% 0.00 in WeatherDisplay:10.37 W/m2 FEW
19:04 58.2 °F 49.6 °F 30.14 in Calm     73% 0.00 in WeatherDisplay:10.37 W/m2 FEW
19:09 57.9 °F 49.7 °F 30.14 in Calm     74% 0.00 in WeatherDisplay:10.37 W/m2 FEW
19:14 57.7 °F 49.8 °F 30.14 in Calm     75% 0.00 in WeatherDisplay:10.37 W/m2 FEW
19:19 57.5 °F 49.6 °F 30.14 in Calm     75% 0.00 in WeatherDisplay:10.37 W/m2 FEW
19:24 57.3 °F 49.8 °F 30.15 in Calm     76% 0.00 in WeatherDisplay:10.37 W/m2 FEW
19:30 57.0 °F 49.9 °F 30.15 in Calm     77% 0.00 in WeatherDisplay:10.37 W/m2 FEW
19:35 56.5 °F 49.7 °F 30.15 in Calm     78% 0.00 in WeatherDisplay:10.37 W/m2 FEW
19:40 55.9 °F 49.9 °F 30.15 in Calm     80% 0.00 in WeatherDisplay:10.37 W/m2 FEW
19:45 55.3 °F 49.6 °F 30.15 in Calm     81% 0.00 in WeatherDisplay:10.37 W/m2 FEW
19:50 54.9 °F 49.5 °F 30.15 in Calm     82% 0.00 in WeatherDisplay:10.37 W/m2 FEW
19:55 54.6 °F 49.2 °F 30.15 in Calm     82% 0.00 in WeatherDisplay:10.37 W/m2 FEW
20:00 54.5 °F 49.1 °F 30.14 in Calm     82% 0.00 in WeatherDisplay:10.37 W/m2 FEW
20:05 54.3 °F 48.9 °F 30.15 in Calm     82% 0.00 in WeatherDisplay:10.37 W/m2 FEW
20:10 54.1 °F 49.1 °F 30.15 in Calm     83% 0.00 in WeatherDisplay:10.37 W/m2 FEW
20:15 53.9 °F 49.2 °F 30.15 in Calm     84% 0.00 in WeatherDisplay:10.37 W/m2 FEW
20:20 53.7 °F 49.0 °F 30.15 in Calm     84% 0.00 in WeatherDisplay:10.37 W/m2 FEW
20:25 53.4 °F 48.7 °F 30.15 in Calm     84% 0.00 in WeatherDisplay:10.37 W/m2 FEW
20:30 53.4 °F 49.0 °F 30.15 in Calm     85% 0.00 in WeatherDisplay:10.37 W/m2 FEW
20:36 53.2 °F 48.8 °F 30.15 in Calm     85% 0.00 in WeatherDisplay:10.37 W/m2 FEW
20:41 53.0 °F 48.6 °F 30.15 in Calm     85% 0.00 in WeatherDisplay:10.37 W/m2 FEW
20:46 52.8 °F 48.7 °F 30.15 in Calm     86% 0.00 in WeatherDisplay:10.37 W/m2 FEW
20:51 52.6 °F 48.5 °F 30.15 in Calm     86% 0.00 in WeatherDisplay:10.37 W/m2 FEW
20:56 52.5 °F 48.4 °F 30.15 in Calm     86% 0.00 in WeatherDisplay:10.37 W/m2 FEW
21:01 52.3 °F 48.2 °F 30.15 in Calm     86% 0.00 in WeatherDisplay:10.37 W/m2 FEW
21:06 52.1 °F 48.0 °F 30.15 in Calm     86% 0.00 in WeatherDisplay:10.37 W/m2 FEW
21:11 52.0 °F 48.3 °F 30.16 in Calm     87% 0.00 in WeatherDisplay:10.37 W/m2 FEW
21:16 51.9 °F 48.2 °F 30.16 in Calm     87% 0.00 in WeatherDisplay:10.37 W/m2 FEW
21:22 51.8 °F 48.1 °F 30.16 in Calm     87% 0.00 in WeatherDisplay:10.37 W/m2 FEW
21:27 51.7 °F 48.3 °F 30.17 in Calm     88% 0.00 in WeatherDisplay:10.37 W/m2 FEW
21:32 51.6 °F 48.2 °F 30.17 in Calm     88% 0.00 in WeatherDisplay:10.37 W/m2 FEW
21:37 51.5 °F 48.1 °F 30.17 in Calm     88% 0.00 in WeatherDisplay:10.37 W/m2 FEW
21:42 51.3 °F 47.9 °F 30.17 in Calm     88% 0.00 in WeatherDisplay:10.37 W/m2 FEW
21:47 51.2 °F 47.8 °F 30.17 in Calm     88% 0.00 in WeatherDisplay:10.37 W/m2 FEW
21:52 51.2 °F 47.8 °F 30.17 in Calm     88% 0.00 in WeatherDisplay:10.37 W/m2 FEW
21:57 51.1 °F 48.0 °F 30.17 in Calm     89% 0.00 in WeatherDisplay:10.37 W/m2 FEW
22:03 50.9 °F 47.8 °F 30.17 in Calm     89% 0.00 in WeatherDisplay:10.37 W/m2 FEW
22:08 50.8 °F 47.7 °F 30.17 in Calm     89% 0.00 in WeatherDisplay:10.37 W/m2 FEW
22:13 50.7 °F 47.6 °F 30.17 in Calm     89% 0.00 in WeatherDisplay:10.37 W/m2 FEW
22:18 50.5 °F 47.4 °F 30.17 in Calm     89% 0.00 in WeatherDisplay:10.37 W/m2 FEW
22:23 50.4 °F 47.3 °F 30.17 in Calm     89% 0.00 in WeatherDisplay:10.37 W/m2 FEW
22:28 50.3 °F 47.2 °F 30.17 in Calm     89% 0.00 in WeatherDisplay:10.37 W/m2 FEW
22:33 50.3 °F 47.2 °F 30.17 in Calm     89% 0.00 in WeatherDisplay:10.37 W/m2 FEW
22:38 50.2 °F 47.1 °F 30.17 in Calm     89% 0.00 in WeatherDisplay:10.37 W/m2 FEW
22:43 50.1 °F 47.0 °F 30.17 in Calm     89% 0.00 in WeatherDisplay:10.37 W/m2 FEW
22:48 50.0 °F 47.2 °F 30.17 in Calm     90% 0.00 in WeatherDisplay:10.37 W/m2 FEW
22:53 49.8 °F 46.7 °F 30.17 in Calm     89% 0.00 in WeatherDisplay:10.37 W/m2 FEW
22:58 49.6 °F 46.5 °F 30.17 in Calm     89% 0.00 in WeatherDisplay:10.37 W/m2 FEW
23:03 49.6 °F 46.8 °F 30.17 in Calm     90% 0.00 in WeatherDisplay:10.37 W/m2 CLR
23:08 49.5 °F 46.7 °F 30.18 in Calm     90% 0.00 in WeatherDisplay:10.37 W/m2 CLR
23:14 49.5 °F 46.7 °F 30.17 in Calm     90% 0.00 in WeatherDisplay:10.37 W/m2 CLR
23:20 49.4 °F 46.6 °F 30.17 in Calm     90% 0.00 in WeatherDisplay:10.37 W/m2 CLR
23:22 49.3 °F 46.5 °F 30.17 in Calm     90% 0.00 in WeatherDisplay:10.37 W/m2 CLR
23:23 49.3 °F 46.5 °F 30.17 in Calm     90% 0.00 in WeatherDisplay:10.37 W/m2 CLR
23:26 49.2 °F 46.4 °F 30.17 in Calm     90% 0.00 in WeatherDisplay:10.37 W/m2 CLR
23:29 49.2 °F 46.4 °F 30.17 in Calm     90% 0.00 in WeatherDisplay:10.37 W/m2 CLR
23:31 49.1 °F 46.3 °F 30.17 in Calm     90% 0.00 in WeatherDisplay:10.37 W/m2 CLR
23:34 49.1 °F 46.3 °F 30.17 in Calm     90% 0.00 in WeatherDisplay:10.37 W/m2 CLR
23:39 49.2 °F 46.7 °F 30.17 in Calm     91% 0.00 in WeatherDisplay:10.37 W/m2 CLR
23:44 49.5 °F 47.0 °F 30.17 in Calm     91% 0.00 in WeatherDisplay:10.37 W/m2 CLR
23:49 49.7 °F 47.2 °F 30.17 in Calm     91% 0.00 in WeatherDisplay:10.37 W/m2 CLR
23:54 49.7 °F 47.2 °F 30.17 in Calm     91% 0.00 in WeatherDisplay:10.37 W/m2 CLR
23:59 49.4 °F 46.6 °F 30.17 in Calm     90% 0.00 in WeatherDisplay:10.37 W/m2 CLR
Piedmont Bend
Compliments of Weather Underground - 4 mb